Location: Denick Cemetery
(37.1487°N, 96.3330°W)
Time: 05:28:20
(UTC+00:00)

Daily predictions for brighter satellites

Satellite Brightness Start Highest point End
(mag) Time Altitude Azimuth Time Altitude Azimuth Time Altitude Azimuth
MOS 1 Rocket 3.6 01:43:51 10° NNE 01:49:20 78° ESE 01:54:38 10° S
CZ-2C R/B 2.9 01:46:18 10° NNE 01:51:12 43° E 01:56:08 10° S
Ariane Rocket 3.2 01:48:55 10° SSE 01:53:51 56° ENE 01:58:48 10° N
Shenzhou-11 Module 3.6 01:52:48 10° WNW 01:54:47 23° N 01:56:46 10° NE
ERBS 4.3 01:53:55 10° WSW 01:56:58 33° NW 02:00:02 10° NNE
USA 186 1.1 01:56:08 10° SSE 01:58:26 52° ENE 02:00:41 10° N
USA 267 3.3 01:52:20 10° NE 01:58:51 65° SE 02:05:20 10° SSW
Cosmos 1408 Rocket 3.7 01:56:00 10° S 02:00:28 84° W 02:04:57 10° N
Cosmos 292 Rocket 3.9 01:57:52 10° NNW 02:02:38 82° WSW 02:07:21 10° SSE
Cosmos 1743 Rocket 3.8 01:59:30 10° SSE 02:03:46 51° E 02:08:06 10° NNE
FREGAT/IRIS 2.2 02:05:43 10° SSE 02:08:19 62° ENE 02:10:55 10° N
H-2A R/B 2.7 02:03:18 10° S 02:08:27 58° W 02:13:28 10° NNW
Cosmos 389 Rocket 4.4 02:08:33 10° NE 02:10:23 14° ENE 02:11:47 11° E
Cosmos 1346 Rocket 4.4 02:07:06 10° SSW 02:10:49 38° WNW 02:14:34 10° N
Iridium 2 4.4 02:07:24 10° NNW 02:11:07 57° W 02:14:46 10° S
Cosmos 1633 2.8 02:09:32 10° SSW 02:13:03 71° W 02:16:35 10° N
Sich 1 4.4 02:11:50 10° SE 02:15:06 22° E 02:18:28 10° NE
ATLAS 5 CENTAUR R/B 3.4 02:09:55 10° NNW 02:15:06 32° NE 02:20:16 13° ESE
Cosmos 1833 Rocket 3.4 02:12:02 10° SSE 02:16:55 32° ESE 02:21:49 10° NE
ISS -1.0 02:17:36 10° WSW 02:18:55 12° SW 02:20:13 10° SSW
MetOp-A 4.2 02:13:50 10° SSE 02:19:06 64° ENE 02:24:25 10° N
DMSP B5D2-2 4.0 02:14:08 10° NNE 02:19:22 77° ESE 02:24:36 10° S
Cosmos 1697 Rocket 4.4 02:16:52 10° NNE 02:20:34 18° NE 02:23:55 11° E
Cosmos 1821 Rocket 4.5 02:17:16 10° SSE 02:22:47 37° E 02:28:23 10° NNE
Cosmos 1500 Rocket 3.4 02:19:08 10° S 02:23:25 83° E 02:27:45 10° N
Resurs 1-3 4.0 02:22:07 12° SE 02:25:53 47° ENE 02:30:06 10° N
Cosmos 2366 rocket 4.2 02:20:01 10° S 02:26:17 79° W 02:32:31 10° N
Cosmos 1862 3.6 02:24:33 10° SSE 02:28:25 47° E 02:32:19 10° NNE
FALCON 9 DEB 3.9 02:26:04 10° SSW 02:29:08 30° SE 02:32:14 10° ENE
SJ-6B 3.2 02:27:17 10° S 02:31:22 69° WSW 02:35:25 10° NNW
SPOT 3 Rocket 3.7 02:27:37 12° SSE 02:32:17 56° ENE 02:37:23 10° N
Cosmos 1656 4.2 02:30:28 10° N 02:35:38 40° ENE 02:39:00 20° ESE
Cosmos 2251 Rocket 4.2 02:31:04 10° SSW 02:36:13 58° WNW 02:41:26 10° N
IRIDIUM 104 4.3 02:39:05 10° S 02:44:14 68° E 02:49:25 10° N
Cosmos 1805 Rocket 3.5 02:42:01 10° S 02:46:23 70° E 02:50:49 10° NNE
COSMOS 2406 3.3 02:45:12 10° SSW 02:50:57 85° WNW 02:56:44 10° NNE
IRIDIUM 114 4.2 02:48:10 10° S 02:53:22 84° E 02:58:37 10° N
Cosmos 614 Rocket 4.0 02:55:55 10° SSW 03:01:02 84° WNW 03:06:16 10° NNE
IRIDIUM 103 4.4 02:57:17 10° S 03:02:30 80° W 03:07:44 10° N
Cosmos 2228 Rocket 3.7 03:01:12 10° NNW 03:05:32 56° W 03:08:58 15° SSW
Cosmos 2369 4.5 03:01:22 10° N 03:06:40 37° ENE 03:08:38 29° E
Meteor 1-4 Rocket 4.2 03:04:19 10° NNE 03:06:20 20° NE 03:06:20 20° NE
Meteor 2-6 Rocket 4.4 03:02:31 10° NNW 03:08:02 72° W 03:12:27 17° S
Cosmos 2082 Rocket 2.3 03:03:14 12° S 03:08:18 52° ESE 03:13:48 10° NNE
Cosmos 1633 Rocket 3.4 03:07:43 40° SE 03:08:32 46° E 03:12:46 10° NNE
CENTAUR R/B 4.2 03:13:55 15° ENE 03:13:55 15° ENE 03:15:31 10° ENE
SL-4 R/B 2.4 03:09:54 10° WSW 03:13:55 60° NW 03:17:37 10° NE
Resurs 01 Rocket 1.7 03:11:49 30° S 03:13:58 76° WSW 03:18:24 10° NNW
ERS-1 Rocket 4.1 03:16:08 26° E 03:16:45 27° ENE 03:20:54 10° NNE
Cosmos 1707 Rocket 3.4 03:19:11 10° N 03:23:32 74° E 03:24:12 60° SE
Cosmos 1818 3.8 03:19:12 10° NNW 03:24:34 56° ENE 03:25:59 43° ESE
Cosmos 1954 Rocket 4.1 03:25:26 46° SE 03:26:26 53° ESE 03:31:37 10° NNE
Cosmos 546 4.5 03:23:16 10° NW 03:27:14 86° SW 03:27:23 82° SSE
Cosmos 220 Rocket 3.8 03:24:31 10° NNW 03:28:43 85° WSW 03:29:19 65° S
Shenzhou-11 Module 4.4 03:27:20 10° NW 03:28:22 17° NNW 03:28:22 17° NNW
Meteor 1-27 Rocket 3.7 03:24:10 10° N 03:30:07 86° E 03:32:29 39° S
Cosmos 1470 Rocket 4.2 03:31:13 40° ENE 03:31:13 40° ENE 03:34:42 10° NNE
Spot 2 Rocket 3.4 03:29:27 51° SE 03:30:39 70° ENE 03:35:44 10° N
Lacrosse 5 4.5 03:29:56 10° N 03:31:04 11° NNE 03:32:12 10° NNE
Cosmos 972 4.3 03:28:48 10° NNW 03:33:55 81° WSW 03:35:09 51° S
MetOp-B 4.1 03:32:06 41° S 03:34:05 81° WSW 03:39:28 10° NNW
Cosmos 1812 3.7 03:30:58 10° NNW 03:34:37 44° W 03:35:34 36° SW
NOSS 3-2 (A) 3.2 03:33:15 43° SSE 03:34:45 57° ESE 03:40:44 10° NE
IGS 5A 3.3 03:36:29 82° ESE 03:36:36 84° ENE 03:40:44 10° N
Cosmos 1190 Rocket 4.3 03:31:53 10° SSW 03:37:06 68° WNW 03:42:24 10° NNE
GP-B 2.9 03:34:12 10° N 03:38:39 74° E 03:38:42 73° E
NOSS 3-2 (C) 4.4 03:42:27 27° ENE 03:42:27 27° ENE 03:45:44 10° NE
Cosmos 407 Rocket 4.3 03:35:38 10° SW 03:40:49 50° WNW 03:45:59 10° N
Cosmos 389 Rocket 4.3 03:42:14 10° NW 03:45:05 25° W 03:45:39 23° WSW
Cosmos 1980 Rocket 2.5 03:43:28 10° N 03:48:57 48° ENE 03:49:26 47° E
Cosmos 1862 Rocket 3.8 03:45:31 10° N 03:49:27 61° NE 03:49:27 61° NE
Terra 2.9 03:52:15 33° NE 03:52:15 33° NE 03:55:53 10° N
SPOT 1/Viking Rocket 3.4 03:53:31 70° S 03:54:10 87° WSW 03:59:25 10° NNW
Cosmos 1934 Rocket 4.4 03:51:46 23° SSW 03:55:48 64° W 04:02:08 10° N
ATLAS 5 CENTAUR R/B 3.1 03:54:08 10° NW 03:59:59 49° WSW 04:01:48 39° SSW
Cosmos 1833 Rocket 4.3 03:55:46 10° WSW 04:00:44 32° WNW 04:05:45 10° N
SPOT 5 3.3 04:03:34 47° NNE 04:03:34 47° NNE 04:06:51 10° N
Cosmos 1697 Rocket 2.8 03:59:27 10° NNW 04:05:01 64° WSW 04:05:40 59° SW
CARTOSAT-1 4.1 04:08:53 55° N 04:08:53 55° N 04:12:17 10° NNW
USA 32 4.3 04:08:04 58° SW 04:08:47 65° W 04:13:59 10° N
SL-8 R/B 4.2 04:05:16 10° WNW 04:09:15 55° W 04:09:15 55° W
Cosmos 1933 Rocket 4.5 04:13:07 44° N 04:13:07 44° N 04:16:11 10° N
USA 234 3.2 04:12:39 60° ESE 04:13:51 74° NE 04:20:23 10° NW
Meteor 1-25 Rocket 4.3 04:15:19 61° SW 04:16:02 68° W 04:21:37 10° N
Cosmos 1867 4.5 04:12:43 10° SW 04:17:55 47° NW 04:23:11 10° NNE
CZ-3A R/B 4.3 04:05:58 10° W 04:21:02 28° SW 04:22:12 28° SSW
ATLAS 3B R/B 4.4 04:29:08 16° ENE 04:29:08 16° ENE 04:30:37 10° NE
USA 238 DEB 4.0 04:23:39 10° SW 04:30:09 61° NW 04:36:56 10° NNE
USA 238 4.0 04:23:46 10° SW 04:30:16 62° NW 04:37:02 10° NNE
Cosmos 2100 Rocket 4.2 04:38:30 58° NE 04:38:30 58° NE 04:43:36 10° NNE
SL-16 R/B 3.2 04:41:28 10° N 04:45:47 38° NE 04:45:47 38° NE
Cosmos 2082 Rocket 4.4 04:48:22 10° WSW 04:52:40 22° NW 04:56:58 10° N
Cosmos 2173 Rocket 4.2 04:55:17 65° NNE 04:55:17 65° NNE 05:00:26 10° N
ERS-1 Rocket 4.5 04:56:08 30° W 04:56:08 30° W 04:59:51 10° NW
CENTAUR R/B 2.8 05:01:01 61° NW 05:01:03 61° NW 05:07:46 10° NNE
NOSS 3-3 (A) 4.4 04:59:34 10° NNW 05:07:23 90° ENE 05:07:32 87° SE
NOSS 3-3 (C) 4.4 04:59:41 10° NNW 05:07:29 89° ENE 05:07:38 87° SE
Cosmos 2322 Rocket 3.2 05:04:12 10° NNW 05:08:14 41° NNE 05:08:14 41° NNE
Cosmos 2016 Rocket 4.5 05:13:42 56° NNE 05:13:42 56° NNE 05:18:37 10° N
Lacrosse 5 3.5 05:10:44 10° NNW 05:13:57 30° N 05:13:57 30° N
Cosmos 1459 Rocket 4.4 05:17:37 57° NW 05:17:37 57° NW 05:23:06 10° N
Cosmos 2360 Rocket 3.6 05:19:11 10° N 05:22:55 31° NNE 05:22:55 31° NNE
Terra 4.1 05:31:08 18° WNW 05:31:08 18° WNW 05:33:00 10° NW
Cosmos 1980 Rocket 4.2 05:28:26 10° NW 05:31:12 19° W 05:31:12 19° W
Cosmos 2333 Rocket 4.2 05:37:57 10° N 05:41:37 21° NE 05:41:37 21° NE
ATLAS 3B R/B 3.4 06:16:20 47° NNW 06:16:20 47° NNW 06:21:54 10° NNE
SL-16 R/B 4.4 06:26:09 10° NW 06:27:38 16° WNW 06:27:38 16° WNW
Lacrosse 4 Rocket 4.5 06:42:31 14° N 06:42:31 14° N 06:43:09 10° N
Cosmos 2219 Rocket 3.6 06:38:12 10° NNW 06:41:28 34° N 06:41:28 34° N
CZ-2D R/B 4.3 06:59:23 10° NE 07:01:45 19° ENE 07:01:45 19° ENE
COSMOS 2428 4.1 07:01:41 10° NNW 07:04:47 34° NNW 07:04:47 34° NNW
Cosmos 2360 Rocket 4.5 07:03:29 10° NW 07:04:39 15° NW 07:04:39 15° NW
Cosmos 2297 Rocket 3.6 07:18:05 32° NE 07:18:05 32° NE 07:21:14 10° NNE
Cosmos 2333 Rocket 4.0 07:21:16 10° NNW 07:23:35 24° NW 07:23:35 24° NW
Cosmos 2237 Rocket 3.3 07:27:31 10° NNW 07:31:36 41° NNE 07:31:36 41° NNE
SL-16 R/B 2.7 08:00:22 68° NE 08:00:22 68° NE 08:06:19 10° N
Resurs 1-4 Rocket 3.0 07:54:59 10° NNE 07:58:42 46° NNE 07:58:42 46° NNE
Cosmos 2227 Rocket 2.9 08:06:20 51° N 08:06:20 51° N 08:10:39 10° NNE
SJ 16-02 3.2 08:08:04 28° NE 08:08:04 28° NE 08:10:20 10° NNE
USA 215 3.1 08:09:42 10° NE 08:16:08 78° ESE 08:16:08 78° ESE
ATLAS 3B CENTAUR R/B 3.9 08:20:18 53° S 08:20:47 53° S 08:28:32 10° ESE
ARIANE 5 R/B 4.2 08:19:04 10° NE 08:23:16 24° E 08:24:00 23° ESE
Cosmos 1655 Rocket 4.5 08:20:11 10° N 08:26:19 55° E 08:27:35 47° ESE
Cosmos 2082 3.9 08:27:15 66° N 08:27:15 66° N 08:32:05 10° NNE
Cosmos 1626 4.4 08:33:06 10° N 08:34:37 22° N 08:34:37 22° N
IRS-1D 3.6 08:35:50 10° NNE 08:40:24 72° NNE 08:40:24 72° NNE
SL-16 R/B 2.4 08:36:58 10° NNW 08:42:39 68° ENE 08:43:47 54° ESE
NOSS 3-1 (C) 3.1 08:43:10 78° E 08:43:10 78° E 08:48:59 10° NE
CZ-2D R/B 2.9 08:38:37 10° N 08:43:04 41° NW 08:43:04 41° NW
CZ-4B R/B 3.8 08:39:46 10° N 08:43:34 56° N 08:43:34 56° N
ADEOS II 2.1 08:40:01 10° NNE 08:45:09 77° E 08:45:09 77° E
NPP 4.2 08:40:45 10° N 08:45:15 46° NW 08:45:15 46° NW
Meteor 1-24 Rocket 3.5 08:42:02 10° N 08:47:20 83° NE 08:47:20 83° NE
Cosmos 1470 3.9 08:53:32 43° NNE 08:53:32 43° NNE 08:56:20 10° NNE
Atlas Centaur 2 4.4 08:53:57 17° SSE 08:54:08 17° SE 08:58:45 10° ESE
Cosmos 158 Rocket 4.1 08:48:51 10° NNW 08:54:15 77° ENE 08:54:58 65° SE
Cosmos 2263 Rocket 3.1 08:54:46 35° SE 08:56:01 40° ESE 09:01:10 10° NE
Cosmos 923 Rocket 4.1 08:51:03 10° NNW 08:55:45 67° NW 08:55:45 67° NW
Meteor 2-5 Rocket 3.9 08:50:56 10° NNW 08:55:43 54° WNW 08:55:43 54° WNW
NOSS 2-3 (D) 4.2 09:00:01 48° E 09:00:01 48° E 09:04:01 10° NE
Cosmos 2297 Rocket 3.8 08:59:54 21° WNW 09:00:07 21° NW 09:04:18 10° N
IRS-1C 4.1 08:55:38 10° NNE 09:00:59 76° ESE 09:01:38 67° SSE
Cosmos 2098 Rocket 3.8 08:59:32 10° N 09:04:47 82° E 09:06:46 45° SSE
Cosmos 1544 Rocket 3.6 09:05:46 76° NE 09:05:46 76° NE 09:09:59 10° N
Cosmos 2292 Rocket 4.5 08:59:09 10° N 09:06:43 83° W 09:08:21 53° S
Cosmos 858 Rocket 4.3 09:11:28 72° WSW 09:11:54 79° WNW 09:17:12 10° NNE
Cosmos 2237 Rocket 4.3 09:12:38 10° NW 09:13:22 13° WNW 09:13:22 13° WNW
USA 229 DEB 3.6 09:15:07 51° WSW 09:16:46 71° WNW 09:23:33 10° NNE
USA 229 3.6 09:15:13 51° WSW 09:16:51 72° NW 09:23:37 10° NNE
Timation 1 Rocket 4.3 09:19:24 55° SW 09:20:44 75° WNW 09:26:43 10° NNE
SeaSat 1 3.9 09:17:04 10° NE 09:21:23 30° ESE 09:23:48 20° SSE
H-2A R/B (2) 3.7 09:26:59 11° SE 09:26:59 11° SE 09:27:04 10° SE
Okean 1-7 Rocket 3.9 09:21:47 10° NNW 09:25:33 51° WNW 09:25:33 51° WNW
NOSS 2-3 (C) 3.4 09:27:29 72° W 09:27:46 76° NW 09:32:27 10° NNE
NOSS 3-1 (A) 3.1 09:26:42 53° SW 09:28:02 79° WNW 09:34:06 10° NNE
Spot 4 Rocket 4.1 09:24:29 10° NNE 09:29:39 73° ESE 09:31:42 37° S
Cosmos 1602 Rocket 4.4 09:25:35 10° N 09:29:48 48° E 09:32:55 17° SSE
Cosmos 1758 3.9 09:32:55 42° NW 09:32:55 42° NW 09:36:15 10° N
Cosmos 1726 2.0 09:34:26 79° NW 09:34:26 79° NW 09:37:59 10° N
OAO 3 Rocket 3.5 09:35:51 48° S 09:36:27 51° SSE 09:41:14 10° E
Resurs 1-4 Rocket 4.1 09:37:13 10° NW 09:39:23 13° WNW 09:39:46 13° WNW
DEBRIS 2.4 09:41:38 60° ENE 09:41:38 60° ENE 09:43:24 10° NE
CZ-2C R/B 3.2 09:37:32 10° NNE 09:41:20 57° E 09:42:36 36° SSE
Cosmos 1607 4.2 09:36:31 10° NW 09:42:42 48° WSW 09:48:38 11° S
SL-16 R/B 4.2 09:45:28 16° WNW 09:45:28 16° WNW 09:47:57 10° NW
SJ 16-02 3.5 09:45:04 13° WNW 09:45:04 13° WNW 09:46:58 10° NNW
Cosmos 1340 Rocket 4.0 09:46:33 27° WNW 09:46:33 27° WNW 09:49:33 10° NNW
Cosmos 1943 4.0 09:42:42 10° NNW 09:48:11 51° ENE 09:53:38 10° SE
Cosmos 1908 3.9 09:46:32 25° SSE 09:48:33 53° E 09:52:23 10° NNE
Cosmos 1553 Rocket 4.3 09:44:40 11° S 09:50:20 63° E 09:56:20 10° NNE
Cosmos 2112 Rocket 4.5 09:45:37 10° NW 09:50:21 36° W 09:50:43 36° WSW
Cosmos 1937 Rocket 4.4 09:50:26 30° W 09:51:43 33° WNW 09:56:31 10° N
Cosmos 1953 2.5 09:53:33 46° WSW 09:54:10 52° W 09:58:08 10° N
SL-4 R/B 1.3 09:53:41 21° NW 09:55:51 87° SW 09:59:16 10° SE
ATLAS CENTAUR R/B 2.5 09:54:24 21° S 09:56:45 38° ESE 10:00:32 10° NE
Landsat 5 4.0 09:53:10 10° SSE 09:56:56 55° ENE 10:00:51 10° N
Cosmos 2150 Rocket 4.0 09:54:14 26° S 09:57:14 81° ESE 10:02:26 10° NNE
USA 215 4.4 09:53:11 10° NNE 09:58:51 33° NNW 10:03:28 15° W
COSMOS 2441 4.4 09:56:28 10° NNE 10:01:16 81° ESE 10:04:50 18° S
Cosmos 1626 Rocket 3.7 09:57:58 10° NNW 10:02:08 48° W 10:03:42 32° SSW
ARIANE 5 R/B 3.3 09:57:38 10° N 10:02:24 37° WNW 10:04:20 28° WSW
Meteor 1-21 Rocket 4.1 09:59:07 10° NNW 10:04:38 69° W 10:10:07 10° S
Meteor 2-21 Rocket 4.3 09:59:24 10° N 10:05:28 77° W 10:11:31 10° S
SL-08 R/B 4.1 10:04:30 30° SW 10:05:46 34° W 10:10:16 10° NNW
CZ-2D R/B 4.0 10:02:51 10° N 10:06:34 37° WNW 10:07:35 31° WSW
Meteor 2-16 Rocket 4.4 10:01:42 10° N 10:07:53 89° W 10:14:02 10° S
Cosmos 1244 Rocket 4.5 10:02:19 10° N 10:08:41 79° W 10:14:57 10° S
Cosmos 372 Rocket 4.3 10:07:49 27° SW 10:10:18 49° WNW 10:15:23 10° N
MSX 3.8 10:04:57 10° N 10:10:43 75° WNW 10:15:22 16° SSW
Cosmos 2228 3.2 10:09:59 12° S 10:14:03 73° E 10:18:26 10° N
IDEFIX/ARIANE 42P 3.0 10:09:18 10° N 10:14:13 44° WNW 10:17:09 22° SW
CZ-2C R/B 2.8 10:11:12 10° NNE 10:15:43 56° E 10:20:16 10° S
Cosmos 1328 4.0 10:13:19 10° N 10:17:19 73° E 10:21:17 10° SSE
Meteor 1-16 Rocket 4.2 10:14:19 20° SSW 10:17:53 55° WNW 10:23:16 10° N
S3M 4.2 10:11:40 10° S 10:18:00 77° E 10:24:24 10° N
Cosmos 1758 Rocket 3.5 10:16:36 10° N 10:20:56 89° WSW 10:25:15 10° S
Cosmos 1703 3.2 10:20:15 10° N 10:24:13 75° W 10:28:08 10° S
ADEOS II 4.0 10:22:07 10° NW 10:24:16 13° WNW 10:26:05 11° W
SL-08 R/B 4.4 10:18:52 10° N 10:25:06 83° W 10:31:21 10° S
SL-16 R/B 3.8 10:23:11 10° WNW 10:25:33 14° W 10:25:33 14° W
Cosmos 1300 3.7 10:22:55 10° SSE 10:26:33 46° E 10:30:13 10° NNE
USA 267 3.3 10:21:47 10° SE 10:28:19 85° NE 10:34:53 10° NW
Cosmos 1125 Rocket 3.5 10:24:43 13° SSW 10:29:24 81° WNW 10:34:41 10° NNE
H-2A R/B 2.2 10:28:24 10° S 10:32:22 45° W 10:36:19 10° NNW
Cosmos 724 4.4 10:26:37 10° NW 10:32:31 55° WSW 10:38:28 10° S
FALCON 9 DEB 3.0 10:35:00 10° NW 10:38:27 69° SW 10:41:52 10° SE
Cosmos 2263 Rocket 3.4 10:36:29 15° WSW 10:40:00 26° WNW 10:44:38 10° N
Aureole 3 4.2 10:35:59 10° SSW 10:40:49 65° W 10:47:02 10° N
ATLAS 3B CENTAUR R/B 3.4 10:33:41 10° W 10:42:37 32° SSW 10:47:09 10° SE
Atlas Centaur 2 3.8 10:36:32 13° SW 10:42:40 39° SSE 10:50:19 10° E
Cosmos 1825 Rocket 3.5 10:38:35 10° NNW 10:42:51 63° W 10:47:06 10° S
Meteor 1-31 Rocket 4.5 10:39:51 10° NNE 10:43:23 34° E 10:46:52 10° SSE
Cosmos 1484 Rocket 4.0 10:44:05 10° NNE 10:47:36 40° E 10:51:06 10° S
Cosmos 1953 Rocket 3.6 10:45:19 10° N 10:49:50 83° W 10:54:17 10° S
Delta 2 Rocket 3.3 10:48:36 13° WSW 10:51:47 61° S 10:55:53 10° E
Cosmos 2315 Rocket 4.4 10:46:54 10° S 10:53:08 71° E 10:59:28 10° NNE
Hubble Space Telescope 3.1 10:56:58 10° S 10:58:28 12° SSE 10:59:58 10° SE
SeaSat 1 3.4 10:54:27 10° N 10:58:49 32° WNW 11:03:10 10° WSW
NOSS 2-2 (C) 3.6 10:59:39 10° SSW 11:03:12 58° ESE 11:06:48 10° NE
CZ-4B R/B 1.3 11:00:27 10° S 11:03:44 65° WSW 11:06:58 10° NNW
ERS-2 3.5 11:02:01 10° SW 11:04:46 20° W 11:07:32 10° NW
Cosmos 1844 Rocket 2.7 11:00:10 10° SSW 11:05:44 78° WNW 11:11:20 10° NNE
ADEOS Rocket 3.7 11:05:08 10° SSE 11:12:37 88° ENE 11:20:29 10° NNW
